Location: Carrer del Canonge
(41.4901°N, 2.2931°E)
Time: 03:43:17
(UTC+00:00)

Cosmos 494 Rocket - Pass Details

Date: 24 January 2021
Orbit: 742 x 771 km, 74.1° (Epoch: 03 March)

Event Time Altitude Azimuth Distance (km) Brightness Sun altitude
Rises 19:36:07 0° 346° (NNW) 3,198 7.4 -29.7°
Reaches altitude 10° 19:38:36 10° 354° (N) 2,274 6.5 -30.2°
Enters shadow 19:38:36 10° 354° (N) 2,274 6.5 -30.2°
